This demonstration page uses our WeatherBlox Daily Observations layout. Learn more.

Left ArrowRight Arrow

31.84235, -102.49876

Hourly Observations for September 25, 2020

Temp ( °F °C ) Dew Point ( °F °C ) Humidity (%) Winds ( mph kmh ) Pressure ( in mb ) Visibility ( mi km ) Precip ( " mm )
12:53 am 00:53 Clear 71 21.7 52 11.1 51 51 S 7 11 29.89 1012 10 16 0.00 0.00
1:53 am 01:53 Clear 70 21.1 54 12.2 57 57 SSW 8 13 29.87 1012 10 16 0.00 0.00
2:53 am 02:53 Clear 69 20.6 55 12.8 61 61 SSW 9 15 29.86 1011 10 16 0.00 0.00
3:53 am 03:53 Clear 66 18.9 55 12.8 68 68 SW 6 9 29.86 1011 10 16 0.00 0.00
4:53 am 04:53 Clear 64 17.8 55 12.8 73 73 WSW 5 7 29.87 1011 10 16 0.00 0.00
5:53 am 05:53 Clear 62 16.7 55 12.8 78 78 WSW 5 7 29.88 1012 10 16 0.00 0.00
6:53 am 06:53 Clear 61 16.1 55 12.8 81 81 SW 5 7 29.89 1012 10 16 0.00 0.00
7:53 am 07:53 Sunny 60 15.6 55 12.8 84 84 Calm 29.91 1013 10 16 0.00 0.00
8:53 am 08:53 Sunny 63 17.2 56 13.3 78 78 SW 3 6 29.92 1013 10 16 0.00 0.00
9:53 am 09:53 Sunny 72 22.2 54 12.2 53 53 SSW 9 15 29.92 1013 10 16 0.00 0.00
10:53 am 10:53 Sunny 79 26.1 48 8.9 34 34 SSW 10 17 29.92 1013 10 16 0.00 0.00
11:53 am 11:53 Sunny 84 28.9 40 4.4 21 21 SSW 7 11 29.91 1013 10 16 0.00 0.00
12:53 pm 12:53 Sunny 87 30.6 35 1.7 16 16 SSE 6 9 29.89 1012 10 16 0.00 0.00
1:53 pm 13:53 Sunny 89 31.7 28 -2.2 11 11 VRB 6 9 29.87 1012 10 16 0.00 0.00
2:53 pm 14:53 Sunny 92 33.3 28 -2.2 10 10 SSE 9 15 29.84 1011 10 16 0.00 0.00
3:53 pm 15:53 Sunny 93 33.9 30 -1.1 10 10 SSW 10 17 29.82 1010 10 16 0.00 0.00
4:53 pm 16:53 Sunny 93 33.9 30 -1.1 10 10 SSE 10 17 29.80 1009 10 16 0.00 0.00
5:53 pm 17:53 Sunny 93 33.9 29 -1.7 10 10 SSE 13 20 29.80 1009 10 16 0.00 0.00
6:53 pm 18:53 Sunny 90 32.2 31 -0.6 12 12 S 13 20 29.81 1009 10 16 0.00 0.00
7:53 pm 19:53 Clear 85 29.4 33 0.6 15 15 SSE 10 17 29.82 1010 10 16 0.00 0.00
8:53 pm 20:53 Clear 79 26.1 34 1.1 20 20 SSE 8 13 29.85 1011 10 16 0.00 0.00
9:53 pm 21:53 Clear 79 26.1 37 2.8 22 22 S 9 15 29.85 1011 10 16 0.00 0.00
10:53 pm 22:53 Clear 77 25 45 7.2 32 32 S 13 20 29.84 1011 10 16 0.00 0.00
11:53 pm 23:53 Clear 75 23.9 49 9.4 40 40 S 16 26 29.83 1010 10 16 0.00 0.00

Powered by AerisWeather